E24CR-1 Weather Reports


Display with metric or nautical units.
time (UTC)temp
F
wind
direction
speed
MPH
gust
MPH
rain 1hr
in
rain 24hr
in
rain mn
in
humidity
%
barometer
mb
20260901070333 87 0 0.0 0.0 0.00 0.00 0.00 62 950.0
20260901065309 86 0 0.0 0.0 0.00 0.00 0.00 61 950.0
20260901064245 86 0 0.0 0.0 0.00 0.00 0.00 61 950.0
20260901063220 87 0 0.0 0.0 0.00 0.00 0.00 64 950.0
20260901062154 87 0 0.0 0.0 0.00 0.00 0.00 63 950.0
20260901061130 87 0 0.0 0.0 0.00 0.00 0.00 61 951.0
20260901060202 86 0 0.0 0.0 0.00 0.00 0.00 63 951.0
20260901055137 86 0 0.0 0.0 0.00 0.00 0.00 68 951.0
20260901054112 86 0 0.0 0.0 0.00 0.00 0.00 65 951.0
20260901053047 86 0 0.0 0.0 0.00 0.00 0.00 64 951.0
20260901052023 85 0 0.0 0.0 0.00 0.00 0.00 64 952.0
20260901050958 84 0 0.0 0.0 0.00 0.00 0.00 70 952.0
20260901045933 83 0 0.0 0.0 0.00 0.00 0.00 70 952.0
20260901044908 86 0 0.0 0.0 0.00 0.00 0.00 60 952.0
20260901043844 88 0 0.0 0.0 0.00 0.00 0.00 65 952.0
20260901042819 83 0 0.0 0.0 0.00 0.00 0.00 68 952.0
20260901041755 84 0 0.0 0.0 0.00 0.00 0.00 68 952.0
20260901040730 85 0 0.0 0.0 0.00 0.00 0.00 66 952.0
20260901035705 85 0 0.0 0.0 0.00 0.00 0.00 66 952.0
20260901034640 84 0 0.0 0.0 0.00 0.00 0.00 65 953.0
20260901034254 84 0 0.0 0.0 0.00 0.00 0.00 67 953.0
20260901033230 85 0 0.0 0.0 0.00 0.00 0.00 67 952.0
20260901032205 82 0 0.0 0.0 0.00 0.00 0.00 71 953.0
20260901031139 84 0 0.0 0.0 0.00 0.00 0.00 70 953.0
20260901030115 82 0 0.0 0.0 0.00 0.00 0.00 71 953.0
20260901025051 85 0 0.0 0.0 0.00 0.00 0.00 67 953.0
20260901024027 82 0 0.0 0.0 0.00 0.00 0.00 76 952.0
20260901023001 80 0 0.0 0.0 0.00 0.00 0.00 78 952.0
20260901021936 78 0 0.0 0.0 0.00 0.00 0.00 83 952.0
20260901020911 78 0 0.0 0.0 0.00 0.00 0.00 80 953.0
20260831203525 74 0 0.0 0.0 0.00 0.00 0.00 87 951.0
20260831202501 74 0 0.0 0.0 0.00 0.00 0.00 87 951.0
20260831201436 74 0 0.0 0.0 0.00 0.00 0.00 85 951.0
20260831200412 74 0 0.0 0.0 0.00 0.00 0.00 85 951.0
20260831195347 74 0 0.0 0.0 0.00 0.00 0.00 85 951.0
20260831194323 74 0 0.0 0.0 0.00 0.00 0.00 85 951.0
20260831193258 74 0 0.0 0.0 0.00 0.00 0.00 85 951.0
20260831192234 74 0 0.0 0.0 0.00 0.00 0.00 85 951.0
20260831191210 74 0 0.0 0.0 0.00 0.00 0.00 85 951.0
20260831190145 74 0 0.0 0.0 0.00 0.00 0.00 85 951.0
20260831185121 74 0 0.0 0.0 0.00 0.00 0.00 85 951.0
20260831184056 74 0 0.0 0.0 0.00 0.00 0.00 85 952.0
20260831183031 74 0 0.0 0.0 0.00 0.00 0.00 86 952.0
20260831182007 74 0 0.0 0.0 0.00 0.00 0.00 86 952.0
20260831180943 74 0 0.0 0.0 0.00 0.00 0.00 87 952.0
20260831175919 74 0 0.0 0.0 0.00 0.00 0.00 87 952.0
20260831174854 74 0 0.0 0.0 0.00 0.00 0.00 87 952.0
20260831173829 74 0 0.0 0.0 0.00 0.00 0.00 86 952.0
20260831172805 74 0 0.0 0.0 0.00 0.00 0.00 87 952.0
20260831171741 74 0 0.0 0.0 0.00 0.00 0.00 88 952.0
20260831170716 74 0 0.0 0.0 0.00 0.00 0.00 87 952.0
20260831165651 74 0 0.0 0.0 0.00 0.00 0.00 87 952.0
20260831164627 74 0 0.0 0.0 0.00 0.00 0.00 87 952.0
20260831163602 74 0 0.0 0.0 0.00 0.00 0.00 86 952.0
20260831162538 74 0 0.0 0.0 0.00 0.00 0.00 88 952.0
20260831161513 74 0 0.0 0.0 0.00 0.00 0.00 88 952.0
20260831160448 74 0 0.0 0.0 0.00 0.00 0.00 87 952.0
20260831155424 74 0 0.0 0.0 0.00 0.00 0.00 86 952.0
20260831154400 74 0 0.0 0.0 0.00 0.00 0.00 87 952.0
20260831153335 74 0 0.0 0.0 0.00 0.00 0.00 88 952.0
20260831152311 75 0 0.0 0.0 0.00 0.00 0.00 88 952.0
20260831151246 74 0 0.0 0.0 0.00 0.00 0.00 86 952.0
20260831150222 74 0 0.0 0.0 0.00 0.00 0.00 87 952.0
20260831145154 74 0 0.0 0.0 0.00 0.00 0.00 87 952.0
20260831144129 74 0 0.0 0.0 0.00 0.00 0.00 87 952.0
20260831143104 74 0 0.0 0.0 0.00 0.00 0.00 88 952.0
20260831142039 75 0 0.0 0.0 0.00 0.00 0.00 89 952.0
20260831141014 75 0 0.0 0.0 0.00 0.00 0.00 89 951.0
20260831135950 74 0 0.0 0.0 0.00 0.00 0.00 89 951.0
20260831134925 74 0 0.0 0.0 0.00 0.00 0.00 89 951.0
20260831133901 74 0 0.0 0.0 0.00 0.00 0.00 88 951.0
20260831132837 75 0 0.0 0.0 0.00 0.00 0.00 90 951.0
20260831131812 75 0 0.0 0.0 0.00 0.00 0.00 91 951.0
20260831130747 75 0 0.0 0.0 0.00 0.00 0.00 92 950.0
20260831125723 75 0 0.0 0.0 0.00 0.00 0.00 92 950.0
20260831124659 76 0 0.0 0.0 0.00 0.00 0.00 90 950.0
20260831123634 76 0 0.0 0.0 0.00 0.00 0.00 90 950.0
20260831122609 76 0 0.0 0.0 0.00 0.00 0.00 89 950.0
20260831121545 77 0 0.0 0.0 0.00 0.00 0.00 88 950.0
20260831120520 77 0 0.0 0.0 0.00 0.00 0.00 87 950.0
20260831115456 77 0 0.0 0.0 0.00 0.00 0.00 87 949.0
20260831114432 77 0 0.0 0.0 0.00 0.00 0.00 87 949.0
20260831113406 77 0 0.0 0.0 0.00 0.00 0.00 86 949.0
20260831112341 77 0 0.0 0.0 0.00 0.00 0.00 86 949.0
20260831111313 77 0 0.0 0.0 0.00 0.00 0.00 85 949.0
20260831110247 77 0 0.0 0.0 0.00 0.00 0.00 84 949.0
20260831105219 77 0 0.0 0.0 0.00 0.00 0.00 85 949.0
20260831104153 78 0 0.0 0.0 0.00 0.00 0.00 86 949.0
20260831103127 78 0 0.0 0.0 0.00 0.00 0.00 85 949.0
20260831102103 78 0 0.0 0.0 0.00 0.00 0.00 84 948.0
20260831101038 78 0 0.0 0.0 0.00 0.00 0.00 84 948.0
20260831100011 79 0 0.0 0.0 0.00 0.00 0.00 82 948.0
20260831094946 79 0 0.0 0.0 0.00 0.00 0.00 81 948.0
20260831093921 78 0 0.0 0.0 0.00 0.00 0.00 83 948.0
20260831092856 78 0 0.0 0.0 0.00 0.00 0.00 83 948.0
20260831091831 78 0 0.0 0.0 0.00 0.00 0.00 83 948.0
20260831090807 78 0 0.0 0.0 0.00 0.00 0.00 83 948.0
20260831085742 78 0 0.0 0.0 0.00 0.00 0.00 82 948.0
20260831084716 79 0 0.0 0.0 0.00 0.00 0.00 84 948.0
20260831083648 79 0 0.0 0.0 0.00 0.00 0.00 83 949.0
20260831083312 80 0 0.0 0.0 0.00 0.00 0.00 85 949.0
20260831082247 79 0 0.0 0.0 0.00 0.00 0.00 85 949.0
20260831081222 80 0 0.0 0.0 0.00 0.00 0.00 82 949.0
20260831080158 79 0 0.0 0.0 0.00 0.00 0.00 79 949.0
20260831075134 79 0 0.0 0.0 0.00 0.00 0.00 84 949.0
20260831074109 79 0 0.0 0.0 0.00 0.00 0.00 84 949.0
20260831073045 78 0 0.0 0.0 0.00 0.00 0.00 87 949.0
20260831072020 78 0 0.0 0.0 0.00 0.00 0.00 89 949.0
20260831070956 77 0 0.0 0.0 0.00 0.00 0.00 86 949.0